CW7253 Weather Reports


time (UTC)temp
F
wind
direction
speed
knots
gust
knots
rain 1hr
in
rain 24hr
in
rain mn
in
humidity
%
barometer
mb
20260510015720 53 121 0.0 0.0 0.00 0.15 0.15 95 1009.5
20260510015215 53 121 0.0 0.0 0.00 0.15 0.15 95 1009.4
20260510014710 54 121 0.0 0.0 0.00 0.15 0.15 96 1009.4
20260510014702 53 121 0.0 0.0 0.00 0.15 0.15 95 1009.4
20260510013657 54 121 0.0 0.0 0.00 0.15 0.15 95 1009.3
20260510013150 54 121 0.0 0.0 0.00 0.15 0.15 95 1009.2
20260510012645 54 121 0.0 0.0 0.00 0.15 0.15 95 1009.2
20260510012132 54 121 0.0 0.0 0.00 0.15 0.15 95 1009.2
20260510011633 55 121 0.0 0.0 0.00 0.15 0.15 94 1009.1
20260510011127 55 121 0.0 0.0 0.00 0.15 0.15 94 1009.1
20260510010621 55 121 0.0 0.0 0.00 0.15 0.15 93 1009.1
20260510010115 55 121 0.0 0.0 0.00 0.15 0.15 92 1009.0
20260510005604 56 121 0.0 0.0 0.00 0.15 0.15 92 1008.9
20260510005103 56 121 0.0 0.0 0.00 0.15 0.15 92 1008.8
20260510004556 57 121 0.0 0.0 0.00 0.15 0.15 91 1008.9
20260510004321 57 121 0.0 0.0 0.00 0.15 0.15 90 1008.9
20260510003545 58 121 0.0 0.0 0.00 0.15 0.15 89 1008.9
20260510003042 58 121 0.0 0.0 0.00 0.15 0.15 88 1008.9
20260510003034 59 121 0.0 0.0 0.00 0.15 0.15 87 1008.8
20260510002023 59 121 0.0 0.0 0.00 0.15 0.15 86 1008.8
20260510001510 60 121 0.0 0.0 0.00 0.15 0.15 85 1008.6
20260510001011 60 121 0.0 0.0 0.00 0.15 0.15 84 1008.4
20260510000506 60 121 0.0 0.0 0.00 0.15 0.15 83 1008.4
20260509235959 61 121 0.0 0.0 0.00 0.15 0.15 82 1008.4
20260509235452 61 121 0.0 0.0 0.00 0.15 0.15 82 1008.5
20260509235441 62 121 0.0 0.0 0.00 0.15 0.15 81 1008.5
20260509234441 62 121 0.0 0.0 0.00 0.15 0.15 81 1008.5
20260509234205 62 121 0.0 0.0 0.00 0.15 0.15 80 1008.4
20260509233429 62 121 0.0 0.0 0.00 0.15 0.15 79 1008.4
20260509232922 62 121 0.0 0.0 0.00 0.15 0.15 79 1008.3
20260509232416 63 121 0.0 0.0 0.00 0.15 0.15 79 1008.3
20260509231910 62 121 0.0 0.0 0.00 0.15 0.15 79 1008.3
20260509231400 63 121 0.0 0.0 0.00 0.15 0.15 79 1008.3
20260509230859 63 121 0.0 0.0 0.00 0.15 0.15 80 1008.2
20260509230353 63 121 0.0 0.0 0.00 0.15 0.15 79 1008.3
20260509225846 63 121 0.0 0.0 0.00 0.15 0.15 78 1008.3
20260509225341 63 121 0.0 0.0 0.00 0.15 0.15 77 1008.4
20260509224827 64 121 0.0 0.0 0.00 0.15 0.15 77 1008.4
20260509224328 64 121 0.0 0.0 0.00 0.15 0.15 78 1008.3
20260509223823 64 121 0.0 0.0 0.00 0.15 0.15 78 1008.3
20260509223317 64 121 0.0 0.0 0.00 0.15 0.15 77 1008.3
20260509222811 64 121 0.0 0.0 0.00 0.15 0.15 77 1008.3
20260509222307 64 121 0.0 0.0 0.00 0.15 0.15 77 1008.3
20260509221759 64 121 0.0 0.0 0.00 0.15 0.15 77 1008.3
20260509221245 64 121 0.0 0.0 0.00 0.15 0.15 77 1008.3
20260509220747 64 121 0.0 0.0 0.00 0.15 0.15 77 1008.3
20260509220241 64 121 0.0 0.0 0.00 0.15 0.15 76 1008.3
20260509215735 64 121 0.0 0.0 0.00 0.15 0.15 77 1008.4
20260509215229 64 121 0.0 0.0 0.00 0.15 0.15 78 1008.5
20260509214948 64 121 0.0 0.0 0.00 0.15 0.15 77 1008.5
20260509214837 63 121 0.0 0.0 0.00 0.15 0.15 79 1008.6
20260509213710 63 121 0.0 0.0 0.00 0.15 0.15 79 1008.7
20260509213205 63 121 0.0 0.0 0.00 0.15 0.15 79 1008.8
20260509212658 62 121 0.0 0.0 0.00 0.15 0.15 80 1008.8
20260509212153 62 121 0.0 0.0 0.00 0.15 0.15 82 1008.9
20260509211647 61 121 0.0 0.0 0.00 0.15 0.15 82 1009.0
20260509211133 61 121 0.0 0.0 0.00 0.15 0.15 84 1009.0
20260509210906 61 121 0.0 0.0 0.00 0.15 0.15 84 1009.1
20260509210128 61 121 0.0 0.0 0.00 0.15 0.15 82 1009.2
20260509205622 61 121 0.0 0.0 0.00 0.15 0.15 82 1009.2
20260509205116 61 121 0.0 0.0 0.00 0.15 0.15 84 1009.2
20260509205108 61 121 0.0 0.0 0.00 0.15 0.15 84 1009.2
20260509204104 61 121 0.0 0.0 0.00 0.15 0.15 83 1009.1
20260509203830 61 121 0.0 0.0 0.00 0.15 0.15 83 1009.0
20260509203053 61 121 0.0 0.0 0.00 0.15 0.15 83 1008.9
20260509202546 61 121 0.0 0.0 0.00 0.15 0.15 84 1008.9
20260509202311 61 121 0.0 0.0 0.00 0.15 0.15 83 1008.7
20260509201535 61 121 0.0 0.0 0.00 0.15 0.15 84 1009.0
20260509201021 61 121 0.0 0.0 0.00 0.15 0.15 83 1009.1
20260509200522 61 121 0.0 0.0 0.00 0.15 0.15 84 1009.2
20260509200016 61 121 0.0 0.0 0.00 0.15 0.15 84 1009.3
20260509195510 61 121 0.0 0.0 0.00 0.15 0.15 82 1009.3
20260509195005 61 121 0.0 0.0 0.00 0.15 0.15 81 1009.4
20260509194454 61 121 0.0 0.0 0.00 0.15 0.15 80 1009.5
20260509193948 62 121 0.0 0.0 0.00 0.15 0.15 81 1009.4
20260509193713 62 121 0.0 0.0 0.00 0.15 0.15 82 1009.5
20260509192937 62 121 0.0 0.0 0.00 0.15 0.15 80 1009.5
20260509192435 62 123 0.0 0.0 0.00 0.15 0.15 83 1009.5
20260509191925 61 123 0.0 0.0 0.00 0.15 0.15 86 1009.6
20260509191411 60 123 0.0 0.0 0.00 0.15 0.15 90 1009.7
20260509190912 60 123 0.0 0.0 0.00 0.15 0.15 87 1010.0
20260509190407 60 123 0.0 0.0 0.00 0.15 0.15 88 1010.0
20260509185900 60 122 0.0 0.0 0.00 0.15 0.15 90 1010.0
20260509185355 59 122 0.0 0.0 0.00 0.15 0.15 91 1010.1
20260509184842 59 122 0.0 0.0 0.00 0.15 0.15 93 1010.1
20260509184342 59 122 0.0 6.1 0.00 0.15 0.15 93 1010.1
20260509183832 58 122 0.0 6.1 0.00 0.15 0.15 94 1010.0
20260509183330 58 122 0.0 0.9 0.00 0.15 0.15 94 1010.0
20260509182825 57 123 0.0 3.5 0.00 0.15 0.15 95 1010.1
20260509182318 57 123 0.0 3.5 0.00 0.15 0.15 96 1010.2
20260509181813 57 252 0.0 0.9 0.00 0.15 0.15 97 1010.1
20260509181530 56 261 0.0 0.9 0.00 0.15 0.15 98 1010.2
20260509180800 56 261 0.0 0.0 0.00 0.15 0.15 97 1010.2
20260509180300 55 261 0.0 0.0 0.00 0.15 0.15 97 1010.4
20260509180255 56 261 0.0 0.0 0.00 0.15 0.15 97 1010.4
20260509175242 55 261 0.0 0.0 0.01 0.15 0.15 97 1010.5
20260509175002 55 261 0.0 0.0 0.01 0.15 0.15 96 1010.5
20260509174231 55 261 0.0 0.0 0.01 0.15 0.15 96 1010.6
20260509173718 55 261 0.0 0.0 0.01 0.15 0.15 97 1010.5
20260509173219 55 261 0.0 0.0 0.01 0.15 0.15 96 1010.5
20260509172712 55 261 0.0 0.0 0.01 0.15 0.15 97 1010.5
20260509172206 55 261 0.0 0.0 0.01 0.15 0.15 96 1010.5
20260509171701 55 261 0.0 0.0 0.01 0.15 0.15 96 1010.6
20260509171149 54 250 0.0 0.0 0.01 0.15 0.15 96 1010.6
20260509170649 54 250 0.0 0.0 0.02 0.15 0.15 96 1010.7
20260509170143 55 250 0.0 0.0 0.02 0.15 0.15 96 1010.7
20260509165636 55 250 0.0 0.0 0.02 0.14 0.15 96 1010.6
20260509165130 54 250 0.0 0.0 0.03 0.14 0.14 96 1010.5
20260509164848 54 250 0.0 0.0 0.04 0.14 0.14 96 1010.6
20260509164118 54 250 0.0 0.0 0.06 0.14 0.14 96 1010.6
20260509163605 54 250 0.0 0.0 0.07 0.14 0.14 96 1010.6
20260509163106 54 250 0.0 0.0 0.09 0.14 0.14 96 1010.6
20260509162600 54 250 0.0 0.0 0.10 0.14 0.14 96 1010.5
20260509162322 54 250 0.0 0.0 0.11 0.14 0.14 95 1010.4
20260509161545 54 250 0.0 0.0 0.11 0.14 0.14 96 1010.4
20260509161038 54 250 0.0 0.0 0.11 0.14 0.14 96 1010.4
20260509160526 54 250 0.0 0.0 0.10 0.13 0.13 96 1010.4
20260509160027 54 250 0.0 0.0 0.10 0.12 0.13 95 1010.5
20260509155521 54 250 0.0 0.0 0.09 0.11 0.11 95 1010.7
20260509155014 54 250 0.0 0.0 0.09 0.10 0.10 95 1011.1
20260509154504 54 250 0.0 0.0 0.08 0.09 0.09 94 1011.3
20260509153958 54 250 0.0 0.0 0.08 0.08 0.08 93 1011.5
20260509153456 54 250 0.0 0.0 0.06 0.06 0.07 93 1011.6
20260509152954 55 250 0.0 0.0 0.05 0.05 0.05 93 1011.6
20260509152946 55 250 0.0 0.0 0.04 0.04 0.04 92 1011.5
20260509151939 55 250 0.0 0.0 0.03 0.03 0.03 92 1011.4
20260509151432 55 250 0.0 0.0 0.03 0.03 0.03 91 1011.4
20260509150926 55 250 0.0 0.0 0.03 0.03 0.03 91 1011.4
20260509150413 55 250 0.0 0.0 0.03 0.03 0.03 90 1011.4
20260509145915 55 250 0.0 0.0 0.02 0.02 0.02 89 1011.5
20260509145405 56 251 0.0 0.0 0.02 0.02 0.02 88 1011.5
20260509144903 56 251 0.0 0.0 0.01 0.01 0.01 87 1011.4
20260509144356 56 250 0.0 0.0 0.01 0.01 0.01 85 1011.4
20260509143843 57 251 0.0 0.0 0.00 0.00 0.00 84 1011.3
20260509143344 57 251 0.0 0.0 0.00 0.00 0.00 83 1011.3
20260509143110 57 251 0.0 0.0 0.00 0.00 0.00 83 1011.1
20260509142332 57 251 0.0 0.0 0.00 0.00 0.00 81 1011.0
20260509142057 57 251 0.0 0.0 0.00 0.00 0.00 81 1010.9
20260509141320 57 251 0.0 0.0 0.00 0.00 0.00 81 1010.9
20260509140815 57 251 0.0 0.0 0.00 0.00 0.00 81 1010.9
20260509140304 57 251 0.0 0.0 0.00 0.00 0.00 81 1010.8
20260509135802 57 251 0.0 0.0 0.00 0.00 0.00 83 1010.8
20260509135256 56 251 0.0 0.0 0.00 0.00 0.00 83 1010.8
20260509134750 56 251 0.0 0.0 0.00 0.00 0.00 83 1010.8
20260509134244 56 251 0.0 0.0 0.00 0.00 0.00 83 1010.6
20260509133736 56 251 0.0 0.0 0.00 0.00 0.00 83 1010.6
20260509133228 56 251 0.0 0.0 0.00 0.00 0.00 84 1010.7
20260509132719 56 251 0.0 0.0 0.00 0.00 0.00 83 1010.5
20260509132206 56 251 0.0 0.0 0.00 0.00 0.00 84 1010.5
20260509131657 56 251 0.0 0.0 0.00 0.00 0.00 85 1010.5
20260509131145 56 251 0.0 0.0 0.00 0.00 0.00 86 1010.6
20260509130640 55 251 0.0 0.0 0.00 0.00 0.00 86 1010.4
20260509130138 55 251 0.0 0.0 0.00 0.00 0.00 87 1010.4
20260509125636 55 251 0.0 0.0 0.00 0.00 0.00 89 1010.5
20260509125137 55 251 0.0 0.0 0.00 0.00 0.00 89 1010.6
20260509124638 55 251 0.0 0.0 0.00 0.00 0.00 90 1010.6
20260509124136 54 251 0.0 0.0 0.00 0.00 0.00 89 1010.4
20260509123636 54 251 0.0 0.0 0.00 0.00 0.00 89 1010.5
20260509123139 54 251 0.0 0.0 0.00 0.00 0.00 89 1010.5
20260509122640 54 251 0.0 0.0 0.00 0.00 0.00 89 1010.5
20260509122134 54 251 0.0 0.0 0.00 0.00 0.00 90 1010.5
20260509121622 54 251 0.0 0.0 0.00 0.00 0.00 90 1010.6
20260509121352 53 251 0.0 0.0 0.00 0.00 0.00 90 1010.3
20260509120620 53 251 0.0 0.0 0.00 0.00 0.00 90 1010.2
20260509120351 53 251 0.0 0.0 0.00 0.00 0.00 90 1010.4
20260509115854 53 251 0.0 0.0 0.00 0.00 0.00 90 1010.2
20260509115120 53 251 0.0 0.0 0.00 0.00 0.00 90 1010.3
20260509114621 53 251 0.0 0.0 0.00 0.00 0.00 90 1010.2
20260509114120 52 251 0.0 0.0 0.00 0.00 0.00 90 1010.1
20260509113622 52 251 0.0 0.0 0.00 0.00 0.00 90 1010.3
20260509113347 52 251 0.0 0.0 0.00 0.00 0.00 90 1010.1
20260509112605 52 251 0.0 0.0 0.00 0.00 0.00 90 1010.2
20260509112105 52 251 0.0 0.0 0.00 0.00 0.00 90 1010.1
20260509111604 52 251 0.0 0.0 0.00 0.00 0.00 90 1010.1
20260509111104 52 251 0.0 0.0 0.00 0.00 0.00 90 1010.2
20260509110604 52 251 0.0 0.0 0.00 0.00 0.00 90 1010.2
20260509110108 52 251 0.0 0.0 0.00 0.00 0.00 89 1010.1
20260509105606 52 251 0.0 0.0 0.00 0.00 0.00 89 1010.2
20260509105104 52 251 0.0 0.0 0.00 0.00 0.00 89 1010.1
20260509104606 51 251 0.0 0.0 0.00 0.00 0.00 89 1009.9
20260509104100 51 251 0.0 0.0 0.00 0.00 0.00 89 1010.1
20260509103549 51 251 0.0 0.0 0.00 0.00 0.00 89 1010.1
20260509103324 51 251 0.0 0.0 0.00 0.00 0.00 88 1009.9
20260509102549 51 251 0.0 0.0 0.00 0.00 0.00 88 1009.9
20260509102320 51 251 0.0 0.0 0.00 0.00 0.00 88 1009.8
20260509101550 51 251 0.0 0.0 0.00 0.00 0.00 87 1009.9
20260509101319 52 251 0.0 0.0 0.00 0.00 0.00 87 1009.9
20260509100550 51 251 0.0 0.0 0.00 0.00 0.00 87 1009.8
20260509100051 51 251 0.0 0.0 0.00 0.00 0.00 87 1009.5
20260509095552 51 251 0.0 0.0 0.00 0.00 0.00 86 1009.7
20260509095318 52 251 0.0 0.0 0.00 0.00 0.00 86 1009.5
20260509094534 52 251 0.0 0.0 0.00 0.00 0.00 86 1009.7
20260509094033 52 251 0.0 0.0 0.00 0.00 0.00 86 1009.9
20260509093533 52 251 0.0 0.0 0.00 0.00 0.00 86 1010.0
20260509093032 52 251 0.0 0.0 0.00 0.00 0.00 85 1010.0
20260509092534 52 251 0.0 0.0 0.00 0.00 0.00 85 1009.8
20260509092033 52 251 0.0 0.0 0.00 0.00 0.00 85 1009.9
20260509091533 52 251 0.0 0.0 0.00 0.00 0.00 84 1009.9
20260509091033 52 251 0.0 0.0 0.00 0.00 0.00 84 1009.9
20260509090534 52 251 0.0 0.0 0.00 0.00 0.00 84 1009.9
20260509090027 52 251 0.0 0.0 0.00 0.00 0.00 84 1010.0
20260509085515 52 251 0.0 0.0 0.00 0.00 0.00 84 1010.0
20260509085008 52 251 0.0 0.0 0.00 0.00 0.00 84 1010.1
20260509085003 52 251 0.0 0.0 0.00 0.00 0.00 84 1010.1
20260509084001 52 251 0.0 0.0 0.00 0.00 0.00 84 1010.1
20260509083732 52 251 0.0 0.0 0.00 0.00 0.00 85 1010.1
20260509083000 52 251 0.0 0.0 0.00 0.00 0.00 85 1010.2
20260509082737 52 251 0.0 0.0 0.00 0.00 0.00 85 1010.2
20260509082501 52 251 0.0 0.0 0.00 0.00 0.00 85 1010.2
20260509081459 51 251 0.0 0.0 0.00 0.00 0.00 85 1010.4
20260509081229 51 251 0.0 0.0 0.00 0.00 0.00 85 1010.4
20260509080501 51 251 0.0 0.0 0.00 0.00 0.00 85 1010.4
20260509075954 51 251 0.0 0.0 0.00 0.00 0.00 85 1010.4
20260509075713 51 251 0.0 0.0 0.00 0.00 0.00 85 1010.3
20260509074936 51 251 0.0 0.0 0.00 0.00 0.00 86 1010.3
20260509074702 51 251 0.0 0.0 0.00 0.00 0.00 86 1010.3
20260509073922 51 251 0.0 0.0 0.00 0.00 0.00 87 1010.4
20260509073414 50 251 0.0 0.0 0.00 0.00 0.00 89 1010.5
20260509073137 50 251 0.0 0.0 0.00 0.00 0.00 88 1010.5
20260509072400 50 251 0.0 0.0 0.00 0.00 0.00 88 1010.5
20260509072123 50 251 0.0 0.0 0.00 0.00 0.00 88 1010.5
20260509071615 50 251 0.0 0.0 0.00 0.00 0.00 87 1010.6
20260509070839 51 251 0.0 0.0 0.00 0.00 0.00 86 1010.6
20260509070326 51 251 0.0 0.0 0.00 0.00 0.00 86 1010.6
20260509070058 51 251 0.0 0.0 0.00 0.00 0.00 85 1010.7
20260509065320 51 251 0.0 0.0 0.00 0.00 0.00 85 1010.6
20260509065045 51 251 0.0 0.0 0.00 0.00 0.00 85 1010.6
20260509064308 52 251 0.0 0.0 0.00 0.00 0.00 84 1010.6
20260509064302 52 251 0.0 0.0 0.00 0.00 0.00 84 1010.6
20260509063528 52 251 0.0 0.0 0.00 0.00 0.00 84 1010.6
20260509062743 53 251 0.0 0.0 0.00 0.00 0.00 83 1010.7
20260509062249 53 251 0.0 0.0 0.00 0.00 0.00 83 1010.8
20260509062244 53 251 0.0 0.0 0.00 0.00 0.00 83 1010.6
20260509061231 53 251 0.0 0.0 0.00 0.00 0.00 82 1010.7
20260509060724 53 251 0.0 0.0 0.00 0.00 0.00 82 1010.7
20260509060218 53 251 0.0 0.0 0.00 0.00 0.00 82 1010.7
20260509055705 53 251 0.0 0.0 0.00 0.00 0.00 82 1010.6
20260509055202 53 250 0.0 0.0 0.00 0.00 0.00 82 1010.6
20260509054927 53 250 0.0 0.0 0.00 0.00 0.00 83 1010.8
20260509054147 53 250 0.0 0.0 0.00 0.00 0.00 82 1010.9
20260509054143 53 250 0.0 0.0 0.00 0.00 0.00 83 1010.9
20260509053138 53 250 0.0 0.0 0.00 0.00 0.00 82 1011.0
20260509052632 53 250 0.0 0.0 0.00 0.00 0.00 83 1011.0
20260509052126 53 250 0.0 0.0 0.00 0.00 0.00 83 1011.1
20260509051620 52 250 0.0 0.0 0.00 0.00 0.00 83 1011.3
20260509051114 52 250 0.0 0.0 0.00 0.00 0.00 82 1011.4
20260509050601 53 250 0.0 0.0 0.00 0.00 0.00 83 1011.4
20260509050332 53 250 0.0 0.0 0.00 0.00 0.00 82 1011.4
20260509045556 53 250 0.0 0.0 0.00 0.00 0.00 82 1011.1
20260509045050 53 250 0.0 0.0 0.00 0.00 0.00 82 1011.1
20260509044814 53 250 0.0 0.0 0.00 0.00 0.00 81 1011.1
20260509044035 53 250 0.0 0.0 0.00 0.00 0.00 80 1011.4
20260509043521 53 250 0.0 0.0 0.00 0.00 0.00 80 1011.4
20260509043022 54 250 0.0 0.0 0.00 0.00 0.00 80 1011.5
20260509042516 54 250 0.0 0.0 0.00 0.00 0.00 79 1011.4
20260509042009 54 250 0.0 0.0 0.00 0.00 0.00 78 1011.4
20260509041504 55 250 0.0 0.0 0.00 0.00 0.00 77 1011.5
20260509040958 55 250 0.0 0.0 0.00 0.00 0.00 77 1011.5
20260509040451 55 250 0.0 0.0 0.00 0.00 0.00 77 1011.6
20260509035945 56 250 0.0 0.0 0.00 0.00 0.00 76 1011.5
20260509035710 56 250 0.0 0.0 0.00 0.00 0.00 75 1011.6
20260509034932 56 250 0.0 0.0 0.00 0.00 0.00 74 1011.6
20260509034427 56 250 0.0 0.0 0.00 0.00 0.00 73 1011.6
20260509034417 56 250 0.0 0.0 0.00 0.00 0.00 72 1011.9
20260509033415 56 250 0.0 0.0 0.00 0.00 0.00 73 1011.9
20260509033140 57 250 0.0 0.0 0.00 0.00 0.00 72 1011.8
20260509032353 57 250 0.0 0.0 0.00 0.00 0.00 70 1011.7
20260509031855 57 250 0.0 0.0 0.00 0.00 0.00 70 1011.8
20260509031349 57 250 0.0 0.0 0.00 0.00 0.00 70 1011.8
20260509030840 56 250 0.0 0.0 0.00 0.00 0.00 72 1011.8
20260509030607 56 250 0.0 0.0 0.00 0.00 0.00 72 1011.9
20260509025830 56 250 0.0 0.0 0.00 0.00 0.00 73 1011.8
20260509025325 56 250 0.0 0.0 0.00 0.00 0.00 74 1011.9
20260509024812 55 250 0.0 0.0 0.00 0.00 0.00 75 1011.8
20260509024545 55 250 0.0 0.0 0.00 0.00 0.00 79 1011.9
20260509023807 55 254 0.0 0.0 0.00 0.00 0.00 78 1011.6
20260509023301 55 254 0.0 0.0 0.00 0.00 0.00 77 1011.4
20260509023025 55 254 0.0 0.0 0.00 0.00 0.00 78 1011.1
20260509022512 55 254 0.0 0.0 0.00 0.00 0.00 78 1011.1
20260509021742 55 254 0.0 0.0 0.00 0.00 0.00 78 1011.4
20260509021237 55 254 0.0 0.0 0.00 0.00 0.00 76 1011.5
20260509021002 55 254 0.0 0.0 0.00 0.00 0.00 76 1011.5
20260509020225 55 254 0.0 0.0 0.00 0.00 0.00 77 1011.6